Capitol Logistics 3257


KRSW
Southwest Florida International Airport
Fort Myers, Florida, US
KMIA
Miami International Airport
Miami, Florida, US

Activity Log

Date Flight Route Aircraft Duration
06/17/2019 CPX657 CYY CYY9 SF34 0h 32m

Route Details

Aircraft Information
Primary: Saab 340AF
Backup: Not Available
Route Data
Distance: 91nm
Sched. Duration: 1h 00m
Avg. Duration: 0h 32m (-68m)
Times Flown: 1
Recm'd Route: CYY CYY9
Planned Altitude: 15,000ft
Origin Wx: KRSW 200253Z 05007KT 10SM CLR 23/22 A2997 RMK AO2 SLP147 T02330217 53006
Dest. Wx: KMIA 200253Z 07010G14KT 10SM SCT028 BKN049 OVC180 27/24 A2994 RMK AO2 LTG DSNT N RAB14E25 SLP140 CB DSNT N MOV W P0001 60001 T02720239 53005
Notes:

Financial History
Total Freight: 5,440lbs
Average Load: 5,440lbs/flt
Fuel Used: 534lbs
Avg. Fuel Used: 534lbs/flt
Fuel Expense: $433
Avg. Fuel Expense: $433
Avg. Fuel Cost: $0.81/lbs
Total Gross Income: $6,093
Pilot Pay: $149
Total Expenses: $710
Total Revenue: $4,823
Average Revenue: $6,092.80